EW7061 Weather Reports


time (UTC)temp
C
wind
direction
speed
KPH
gust
KPH
rain 1hr
cm
rain 24hr
cm
rain mn
cm
humidity
%
barometer
mb
20260902092703 17 181 0.0 1.6 0.00 0.05 0.00 86 1020.5
20260902091803 17 181 0.0 3.2 0.00 0.05 0.00 86 1020.2
20260902090903 17 181 1.6 4.8 0.00 0.05 0.00 86 1020.2
20260902090004 17 181 0.0 3.2 0.00 0.05 0.00 86 1020.0
20260902085403 17 181 0.0 4.8 0.00 0.05 0.00 86 1020.0
20260902084503 17 181 1.6 6.4 0.00 0.05 0.00 86 1020.0
20260902083603 17 181 1.6 6.4 0.00 0.05 0.00 86 1020.0
20260902082703 17 181 0.0 6.4 0.00 0.05 0.00 86 1020.1
20260902082016 17 181 0.0 3.2 0.00 0.05 0.00 87 1020.1
20260902081118 16 181 0.0 1.6 0.00 0.05 0.00 87 1020.2
20260902080003 16 181 0.0 1.6 0.00 0.05 0.00 87 1020.1
20260902075403 16 181 0.0 4.8 0.00 0.05 0.00 87 1020.1
20260902074503 16 181 0.0 3.2 0.00 0.05 0.00 87 1020.0
20260902073603 16 181 0.0 3.2 0.00 0.05 0.00 87 1020.0
20260902072703 16 181 0.0 3.2 0.00 0.05 0.00 87 1020.0
20260902071803 16 181 0.0 3.2 0.00 0.05 0.00 88 1020.0
20260902070903 16 0 0.0 0.0 0.00 0.05 0.00 88 1020.0
20260902070217 16 0 0.0 0.0 0.00 0.05 0.00 88 1020.1
20260902065616 16 0 0.0 0.0 0.00 0.05 0.00 88 1020.1
20260902064503 16 0 0.0 0.0 0.00 0.05 0.00 88 1020.2
20260902063603 16 0 0.0 0.0 0.00 0.05 0.00 88 1020.2
20260902062703 16 0 0.0 0.0 0.00 0.05 0.00 87 1020.1
20260902061803 16 0 0.0 0.0 0.00 0.05 0.00 87 1020.0
20260902060903 17 0 0.0 0.0 0.00 0.05 0.00 87 1019.8
20260902060003 17 0 0.0 0.0 0.00 0.05 0.00 86 1019.6
20260902055403 17 0 0.0 0.0 0.00 0.05 0.00 86 1019.5
20260902054503 17 181 0.0 4.8 0.00 0.05 0.00 86 1019.3
20260902053603 17 181 1.6 6.4 0.00 0.05 0.00 85 1019.3
20260902052703 17 181 0.0 4.8 0.00 0.05 0.00 85 1019.2
20260902051803 17 181 0.0 4.8 0.00 0.05 0.00 85 1019.3
20260902051117 17 181 0.0 4.8 0.00 0.05 0.00 86 1019.2
20260902050218 17 181 0.0 3.2 0.00 0.05 0.00 86 1019.3
20260902045403 17 181 0.0 4.8 0.00 0.05 0.00 87 1019.3
20260902044503 17 0 0.0 0.0 0.00 0.05 0.00 87 1019.4
20260902043603 17 181 0.0 3.2 0.00 0.05 0.00 87 1019.4
20260902042703 17 181 0.0 3.2 0.00 0.05 0.00 87 1019.4
20260902041803 17 181 0.0 1.6 0.00 0.05 0.00 87 1019.5
20260902040903 17 181 0.0 3.2 0.00 0.05 0.00 87 1019.5
20260902040003 17 0 0.0 0.0 0.00 0.05 0.00 86 1019.6
20260902035403 17 0 0.0 0.0 0.00 0.05 0.05 86 1019.6
20260902034717 17 0 0.0 0.0 0.00 0.05 0.05 86 1019.5
20260902033603 17 0 0.0 0.0 0.00 0.05 0.05 86 1019.4
20260902032703 17 0 0.0 0.0 0.00 0.05 0.05 85 1019.3
20260902031803 17 181 0.0 4.8 0.00 0.05 0.05 85 1019.2
20260902030903 17 181 1.6 4.8 0.00 0.05 0.05 86 1019.1
20260902030003 17 181 0.0 4.8 0.00 0.05 0.05 86 1018.9
20260902025403 17 181 0.0 3.2 0.00 0.05 0.05 86 1019.0
20260902024503 17 181 0.0 3.2 0.00 0.05 0.05 86 1018.9
20260902023603 17 181 0.0 1.6 0.00 0.05 0.05 86 1019.0
20260902022703 17 181 0.0 1.6 0.00 0.05 0.05 86 1018.9
20260902022016 17 0 0.0 0.0 0.00 0.05 0.05 86 1018.8
20260902020903 17 181 0.0 1.6 0.00 0.05 0.05 85 1018.9
20260902020003 17 0 0.0 0.0 0.00 0.05 0.05 85 1018.9
20260902015403 17 0 0.0 0.0 0.00 0.05 0.05 85 1018.8
20260902014503 17 181 0.0 4.8 0.00 0.05 0.05 84 1018.6
20260902013603 17 181 0.0 1.6 0.00 0.05 0.05 84 1018.5
20260902012703 17 181 0.0 3.2 0.00 0.05 0.05 84 1018.5
20260902011803 17 181 0.0 3.2 0.00 0.05 0.05 83 1018.7
20260902010903 17 181 0.0 1.6 0.00 0.05 0.05 83 1019.0
20260902010216 17 181 0.0 1.6 0.00 0.05 0.05 83 1019.2
20260902005403 17 181 0.0 1.6 0.00 0.05 0.05 83 1019.2
20260902004503 17 181 0.0 3.2 0.00 0.05 0.05 82 1019.2
20260902003603 17 181 0.0 3.2 0.00 0.05 0.05 82 1018.9
20260902002703 17 181 0.0 3.2 0.00 0.05 0.05 82 1019.0
20260902001803 17 181 0.0 3.2 0.00 0.05 0.05 82 1018.9
20260902000903 17 181 0.0 4.8 0.00 0.05 0.05 82 1018.7
20260902000003 17 181 0.0 3.2 0.00 0.05 0.05 82 1018.6
20260901235403 17 181 0.0 3.2 0.00 0.05 0.05 81 1018.7
20260901234503 17 181 0.0 1.6 0.00 0.05 0.05 80 1018.6
20260901233603 17 181 0.0 3.2 0.00 0.05 0.05 79 1018.4
20260901232703 17 181 0.0 1.6 0.00 0.05 0.05 78 1018.4
20260901231803 17 0 0.0 0.0 0.00 0.05 0.05 76 1018.5
20260901230903 17 0 0.0 0.0 0.00 0.05 0.05 75 1018.6
20260901230218 17 0 0.0 0.0 0.00 0.05 0.05 72 1018.6
20260901225617 17 0 0.0 0.0 0.00 0.05 0.05 73 1018.7
20260901224717 17 0 0.0 0.0 0.00 0.05 0.05 73 1018.9
20260901223603 17 0 0.0 0.0 0.00 0.05 0.05 73 1018.8
20260901222918 17 0 0.0 0.0 0.00 0.05 0.05 75 1018.8
20260901221803 17 181 0.0 3.2 0.00 0.05 0.05 72 1018.8
20260901220903 18 0 0.0 0.0 0.00 0.05 0.05 72 1018.8
20260901220218 18 181 0.0 3.2 0.00 0.05 0.05 72 1018.9
20260901215403 18 181 0.0 1.6 0.00 0.05 0.05 76 1018.9
20260901214503 18 181 0.0 4.8 0.00 0.05 0.05 74 1018.8
20260901213603 18 181 1.6 6.4 0.00 0.05 0.05 71 1018.6
20260901212703 18 181 1.6 6.4 0.00 0.05 0.05 73 1018.4
20260901212017 18 181 1.6 9.7 0.00 0.05 0.05 72 1018.5
20260901210903 18 180 3.2 9.7 0.00 0.05 0.05 68 1018.3
20260901210003 18 179 3.2 9.7 0.00 0.05 0.05 65 1018.2
20260901205403 18 177 3.2 9.7 0.00 0.05 0.05 68 1018.2
20260901204503 18 176 3.2 8.0 0.00 0.05 0.05 67 1018.3
20260901203603 18 175 1.6 6.4 0.00 0.05 0.05 69 1018.3
20260901202917 18 175 1.6 9.7 0.00 0.05 0.05 71 1018.3
20260901202018 18 174 1.6 9.7 0.05 0.05 0.05 72 1018.3
20260901200903 18 174 0.0 4.8 0.05 0.05 0.05 70 1018.3
20260901200003 17 174 0.0 4.8 0.05 0.05 0.05 67 1018.2
20260901195403 17 174 0.0 4.8 0.05 0.05 0.05 69 1018.2
20260901194503 17 174 0.0 4.8 0.05 0.05 0.05 69 1018.2
20260901193603 17 174 0.0 4.8 0.05 0.05 0.05 71 1018.0
20260901192703 18 174 0.0 8.0 0.03 0.03 0.03 69 1017.9
20260901192018 19 174 1.6 8.0 0.00 0.00 0.00 74 1017.7
20260901190903 20 174 1.6 8.0 0.00 0.00 0.00 67 1018.1
20260901190003 20 173 3.2 17.7 0.00 0.00 0.00 71 1018.1
20260901185618 20 173 3.2 17.7 0.00 0.00 0.00 69 1018.0
20260901184503 20 173 1.6 9.7 0.00 0.00 0.00 67 1017.9
20260901183603 20 172 1.6 9.7 0.00 0.00 0.00 70 1018.0
20260901182703 20 171 1.6 8.0 0.00 0.00 0.00 74 1018.2
20260901181803 20 171 1.6 6.4 0.00 0.00 0.00 76 1018.1
20260901180903 20 171 0.0 6.4 0.00 0.00 0.00 76 1018.4
20260901180003 20 171 1.6 8.0 0.00 0.00 0.00 77 1018.4
20260901175403 20 171 1.6 8.0 0.00 0.00 0.00 76 1018.5
20260901174503 20 171 1.6 8.0 0.00 0.00 0.00 77 1018.3
20260901173603 20 174 1.6 14.5 0.00 0.00 0.00 78 1018.1
20260901172703 20 180 1.6 8.0 0.00 0.00 0.00 78 1018.1
20260901171803 20 180 0.0 8.0 0.00 0.00 0.00 78 1018.0
20260901170903 20 180 1.6 6.4 0.00 0.00 0.00 80 1018.2
20260901170003 20 180 1.6 8.0 0.00 0.00 0.00 81 1018.1
20260901165403 20 180 1.6 8.0 0.00 0.00 0.00 81 1018.2
20260901164503 20 180 1.6 9.7 0.00 0.00 0.00 83 1018.1
20260901163818 20 178 3.2 9.7 0.00 0.00 0.00 82 1018.0
20260901162703 20 178 1.6 6.4 0.00 0.00 0.00 83 1018.2
20260901161803 20 178 3.2 11.3 0.00 0.00 0.00 82 1018.0
20260901160903 21 177 3.2 11.3 0.00 0.00 0.00 80 1018.1
20260901160003 21 177 1.6 11.3 0.00 0.00 0.00 79 1018.1
20260901155617 21 175 3.2 11.3 0.00 0.00 0.00 79 1018.1
20260901154503 21 173 3.2 9.7 0.00 0.00 0.00 77 1018.2
20260901153603 21 172 1.6 11.3 0.00 0.00 0.00 77 1018.2
20260901152703 21 182 1.6 11.3 0.00 0.00 0.00 78 1018.3
20260901152018 21 214 1.6 11.3 0.00 0.00 0.00 77 1018.3
20260901150903 20 233 0.0 3.2 0.00 0.00 0.00 78 1018.5
20260901150003 20 233 0.0 3.2 0.00 0.00 0.00 79 1018.5
20260901145616 20 233 0.0 3.2 0.00 0.00 0.00 78 1018.5
20260901144718 20 233 0.0 1.6 0.00 0.00 0.00 79 1018.5
20260901143603 20 0 0.0 0.0 0.00 0.00 0.00 79 1018.4
20260901142703 20 233 0.0 1.6 0.00 0.00 0.00 79 1018.6
20260901141803 20 233 0.0 3.2 0.00 0.00 0.00 79 1018.6
20260901140903 20 233 0.0 1.6 0.00 0.00 0.00 81 1018.5
20260901140003 20 233 0.0 3.2 0.00 0.00 0.00 81 1018.5
20260901135403 20 233 0.0 3.2 0.00 0.00 0.00 81 1018.4
20260901134503 20 233 0.0 1.6 0.00 0.00 0.00 82 1018.3
20260901133603 20 232 0.0 1.6 0.00 0.00 0.00 81 1018.6
20260901132703 20 232 0.0 1.6 0.00 0.00 0.00 82 1018.6
20260901132017 20 232 0.0 3.2 0.00 0.00 0.00 83 1018.5
20260901130903 20 232 0.0 1.6 0.00 0.00 0.00 84 1018.7
20260901130003 20 232 0.0 1.6 0.00 0.00 0.00 84 1018.4
20260901125403 20 232 0.0 1.6 0.00 0.00 0.00 84 1018.4
20260901124503 20 232 0.0 3.2 0.00 0.00 0.00 84 1018.6
20260901123603 20 232 0.0 1.6 0.00 0.00 0.00 84 1018.6
20260901122918 20 232 0.0 4.8 0.00 0.00 0.00 84 1018.5
20260901121803 20 232 0.0 4.8 0.00 0.00 0.00 85 1018.5
20260901120903 20 232 0.0 6.4 0.00 0.00 0.00 85 1018.4
20260901120003 20 232 0.0 3.2 0.00 0.00 0.00 85 1018.3
20260901115617 20 232 0.0 3.2 0.00 0.00 0.00 85 1018.2
20260901114503 20 232 0.0 3.2 0.00 0.00 0.00 86 1018.0
20260901113603 20 232 0.0 3.2 0.00 0.00 0.00 85 1017.8
20260901112703 20 232 0.0 3.2 0.00 0.00 0.00 85 1017.9
20260901111803 20 232 0.0 1.6 0.00 0.00 0.00 85 1017.8
20260901110903 20 235 0.0 1.6 0.00 0.00 0.00 85 1017.8
20260901110003 20 236 0.0 4.8 0.00 0.00 0.00 85 1017.7
20260901105403 20 236 0.0 4.8 0.00 0.00 0.00 85 1017.7
20260901104503 20 236 0.0 3.2 0.00 0.00 0.00 85 1017.7
20260901103603 19 0 0.0 0.0 0.00 0.00 0.00 84 1017.6
20260901102703 19 0 0.0 0.0 0.00 0.00 0.00 84 1017.7
20260901101803 20 0 0.0 0.0 0.00 0.00 0.00 83 1017.6
20260901100903 20 0 0.0 0.0 0.00 0.00 0.00 83 1017.6
20260901100003 20 0 0.0 0.0 0.00 0.00 0.00 82 1017.4
20260901095403 20 0 0.0 0.0 0.00 0.00 0.00 82 1017.4
20260901094718 20 0 0.0 0.0 0.00 0.00 0.00 81 1017.5
20260901093817 20 0 0.0 0.0 0.00 0.00 0.00 80 1017.5